Location: Newark
(45.5167°N, 11.1667°E)
Time: 22:05:59
(UTC+00:00)

Tiros 1 - Visible Passes

Search period start: 14 December 2019 00:00
Search period end: 24 December 2019 00:00
Orbit: 630 x 664 km, 48.4° (Epoch: 13 December)

Date Brightness Start Highest point End Pass type
(mag) Time Alt. Az. Time Alt. Az. Time Alt. Az.
14 Dec 7.8 04:08:13 47° SSE 04:08:31 48° SSE 04:13:03 10° ENE visible
14 Dec 7.2 05:45:56 10° W 05:50:40 71° NNW 05:55:20 10° ENE visible
15 Dec 10.1 02:55:54 13° E 02:55:54 13° E 02:56:30 10° E visible
15 Dec 7.1 04:33:35 57° SW 04:34:29 80° SSE 04:39:12 10° ENE visible
15 Dec 7.3 06:12:12 10° W 06:16:53 60° N 06:21:31 10° ENE visible
16 Dec 9.4 03:21:08 22° E 03:21:08 22° E 03:23:00 10° ENE visible
16 Dec 7.1 04:58:48 37° W 05:00:37 73° NNW 05:05:18 10° ENE visible
17 Dec 8.5 03:46:16 37° ENE 03:46:16 37° ENE 03:49:10 10° ENE visible
17 Dec 7.3 05:23:57 23° WNW 05:26:50 61° N 05:31:29 10° ENE visible
18 Dec 7.5 04:11:20 59° NE 04:11:20 59° NE 04:15:17 10° ENE visible
18 Dec 7.3 05:49:00 14° WNW 05:53:05 62° N 05:57:43 10° E visible
19 Dec 10.1 02:58:41 13° ENE 02:58:41 13° ENE 02:59:08 10° ENE visible
19 Dec 7.2 04:36:21 59° NNW 04:36:46 62° N 04:41:26 10° ENE visible
19 Dec 7.2 06:14:32 10° WNW 06:19:17 77° NNE 06:23:57 10° ESE visible
20 Dec 9.5 03:23:40 21° ENE 03:23:40 21° ENE 03:25:15 10° ENE visible
20 Dec 7.3 05:01:20 37° WNW 05:03:01 62° N 05:07:40 10° E visible
21 Dec 8.6 03:48:37 34° ENE 03:48:37 34° ENE 03:51:24 10° ENE visible
21 Dec 7.2 05:26:17 23° WNW 05:29:14 75° NNE 05:33:55 10° E visible
22 Dec 7.6 04:13:34 55° NE 04:13:34 55° NE 04:17:37 10° E visible
22 Dec 7.2 05:51:14 14° WNW 05:55:20 77° SSW 06:00:00 10° ESE visible
23 Dec 10.1 03:00:52 13° ENE 03:00:52 13° ENE 03:01:21 10° ENE visible
23 Dec 7.1 04:38:32 62° NW 04:39:10 73° NNE 04:43:52 10° E visible
23 Dec 7.8 06:16:47 10° WNW 06:21:16 44° SSW 06:25:43 10° SE visible
